Regional Weather Roundup
Issued by NWS Charleston, SC

Current Version | Previous Version | Text Only | Print | Product List | Glossary Off
Versions: 1 2 3 4 5 6 7 8 9 10 11 12 13 14 15 16 17 18 19 20 21 22 23 24 25 26 27 28 29 30 31 32 33 34 35 36 37 38 39 40 41 42 43 44 45 46 47 48 49 50
000 ASUS42 KCHS 311812 RWRCHS REGIONAL WEATHER ROUNDUP NATIONAL WEATHER SERVICE CHARLESTON SC 200 PM EDT FRI JUL 31 2015 NOTE: "FAIR" INDICATES FEW OR NO CLOUDS BELOW 12,000 FEET WITH NO SIGNIFICANT WEATHER AND/OR OBSTRUCTIONS TO VISIBILITY. NOT ALL STATIONS ARE QUALITY CONTROLLED BY THE NATIONAL WEATHER SERVICE. USE DATA WITH CAUTION...ESPECIALLY DEWPOINT OBSERVATIONS. SCZ027-030-031-034>040-042>050-311900- ...SOUTHEAST SOUTH CAROLINA... CITY SKY/WX TMP DP RH WIND PRES REMARKS N CHARLESTON PTSUNNY 89 74 60 CALM 29.92F HX 98 6HR MIN TEMP: 81; 6HR MAX TEMP: 89; WATERFRONT PRK N/A 83 76 79 VRB3 29.92S HX 91 MOUNT PLEASANT N/A 86 75 70 CALM 29.93F HX 95 JOHNS ISLAND FAIR 82 77 83 S9 29.93F HX 91 PINOPOLIS NOT AVBL MONCKS CORNER FAIR 88 73 62 N3 29.93F HX 96 SUMMERVILLE FAIR 90 77 66 S3 29.94F HX 102 BEAUFORT MCAS PTSUNNY 88 79 74 S8 29.95R THUNDER HX 103 6HR MIN TEMP: 80; 6HR MAX TEMP: 90; BEAUFORT ARPT FAIR 86 79 79 SW8G17 29.94S HX 99 HILTON HEAD IS PTSUNNY 81 75 83 S6 29.97S THUNDER WALTERBORO MOCLDY 91 77 62 S5 29.93F HX 105 ALLENDALE FAIR 90 75 62 SE9 29.92F HX 100 ...SOUTHERN MIDLANDS AND PEE DEE... CITY SKY/WX TMP DP RH WIND PRES REMARKS GEORGETOWN NOT AVBL KINGSTREE NOT AVBL ORANGEBURG SUNNY 93 68 43 N7 29.94F HX 97 6HR MIN TEMP: 81; 6HR MAX TEMP: 93; BARNWELL FAIR 91 73 55 SE6 29.94F HX 100 AIKEN FAIR 90 61 37 E9 29.99F MANNING RAIN 86 70 58 S6 29.94F HX 90 COLUMBIA MOSUNNY 93 63 36 E9 29.94F HX 94 6HR MIN TEMP: 79; 6HR MAX TEMP: 93; SUMTER MOSUNNY 93 67 43 VRB6 29.92F HX 96 6HR MIN TEMP: 76; 6HR MAX TEMP: 93; 6HR PCP: 0.11; FLORENCE MOSUNNY 92 69 47 NE8 29.93F HX 97 6HR MIN TEMP: 80; 6HR MAX TEMP: 93; MYRTLE BEACH PTSUNNY 88 73 62 SW9 29.94F HX 96 N MYRTLE BEACH PTSUNNY 86 76 71 VRB3 29.92F HX 96 6HR MIN TEMP: 79; 6HR MAX TEMP: 86; $$ GAZ063-065-086>088-099>101-113>116-118-119-134>141-150-311900- ...SOUTHEAST GEORGIA... CITY SKY/WX TMP DP RH WIND PRES REMARKS SAVANNAH ARPT PTSUNNY 89 74 60 S9 29.95S HX 98 6HR MIN TEMP: 79; 6HR MAX TEMP: 89; HUNTER AAF CLOUDY 87 80 79 S8 29.93S HX 101 6HR MIN TEMP: 79; 6HR MAX TEMP: 88; FORT STEWART PTSUNNY 90 75 61 SE5 29.91F HX 100 6HR MIN TEMP: 79; 6HR MAX TEMP: 91; STATESBORO LGT RAIN 87 81 82 SW6 29.92F HX 104 SYLVANIA PTCLDY 94 79 60 E6 29.93F HX 111 CLAXTON FAIR 90 77 66 W3 29.92F HX 102 ...CSRA...CENTRAL AND FAR SOUTHEAST GEORGIA... CITY SKY/WX TMP DP RH WIND PRES REMARKS THOMSON SUNNY 93 70 47 CALM 29.99F HX 99 AUGUSTA-BUSH SUNNY 92 67 43 VRB6 29.93F HX 95 6HR MIN TEMP: 78; 6HR MAX TEMP: 92; AUGUSTA-DANIEL SUNNY 92 66 42 NE12G17 29.96F HX 94 SWAINSBORO MOCLDY 79 77 94 SE12 29.95F VIDALIA MOSUNNY 90 77 66 S6 29.93F HX 102 EASTMAN FAIR 92 75 57 CALM 29.95F HX 102 HAZLEHURST FAIR 89 77 67 CALM 29.93F HX 102 ALMA MOSUNNY 91 75 59 W5 29.94F HX 101 6HR MIN TEMP: 76; 6HR MAX TEMP: 91; WAYCROSS MOSUNNY 93 80 65 SW7 29.94F HX 112 JESUP FAIR 93 77 59 SW6 29.94F HX 107 BAXLEY FAIR 91 77 62 SW6 29.93F HX 105 BRUNSWICK PTSUNNY 91 75 59 S3 29.95F HX 102 SAINT SIMONS CLOUDY 87 76 69 SE9 29.94F HX 97 6HR MIN TEMP: 78; 6HR MAX TEMP: 88; $$ SCZ027-028-034-036>038-045-046-048>050-GAZ119-141-311900- ...LAKE AND SUPPLEMENTAL COASTAL OBSERVATIONS... STATION/POSITION TIME TEMP WIND PRES WAVE SWELL AIR SEA DIR/SP/G HT/PER HT/PER/DIR (UTC) (F) (DEG/KT/KT) (MB) (FT/S) (FT/S/D) UPR LAKE MARION NOT AVBL WINYAH BAY NOT AVBL LAKE MURRAY 1700 87 360/ 3/ 6 1014.2F ACE BASIN NERRS NOT AVBL FORT PULASKI 1700 82 87 160/ 6/ 10 1014.6F SAPELO ISLAND 1700 90 160/ 5 1014.0F $$ ANZ835-935-AMZ111-154-330-350-352-354-370-450-454-472-311900- ...C-MAN AND BUOY OBSERVATIONS... STATION/POSITION TIME TEMP WIND PRES WAVE SWELL AIR SEA DIR/SP/G HT/PER HT/PER/DIR (UTC) (F) (DEG/KT/KT) (MB) (FT/S) (FT/S/D) BUOY 41004 1750 81 84 210/ 12/ 14 1013.8R 2/ 8 2/ 8 BUOY 41008 1750 82 83 180/ 8/ 10 1014.7F 1/ 4 2/150/ 4 FOLLY BEACH CMAN 1700 83 250/ 5/ 8 1014.1F CAPERS NEARSHORE 1708 83 260/ 10/ 14 1014.1F FRIPP NEARSHORE 1700 83 220/ 12/ 12 1013.8F STATION/POSITION TIME TEMP WIND PRES WAVE SWELL AIR SEA DIR/SP/G HT/PER HT/PER/DIR (UTC) (F) (DEG/KT/KT) (MB) (FT/S) (FT/S/D) 5E ST. MARYS GA 1721 85 N/A 2/ 5 FRYING PAN BUOY 1750 84 85 240/ 8/ 10 1013.5F 3/ 5 3/220/ 5 BUOY 41025 1750 82 86 10/ 10/ 12 1011.9F 4/ 9 3/150/ 9 CAPE LOOKOUT NC 1700 86 350/ 3/ 5 1012.2F BUOY 41002 1750 81 81 250/ 17/ 21 1015.4F 7/ 8 BUOY 41010 1720 84 84 230/ 10/ 12 1017.2R ST AUGUSTINE FL 1800 82 83 110/ 10/ 11 1015.2F $$

USA.gov is the U.S. government's official web portal to all federal, state and local government web resources and services.